Location: Newark
(45.8511°N, 10.8245°E)
Time: 08:33:05
(UTC+00:00)

OTV 5 (USA 277) - Pass Details

Date: 23 August 2019
Orbit: 310 x 324 km, 54.5° (Epoch: 17 October)

Event Time Altitude Azimuth Distance (km) Brightness Sun altitude
Rises 19:13:56 0° 201° (SSW) 2,029 ? -10.7°
Reaches altitude 10° 19:16:12 10° 181° (S) 1,203 ? -11.1°
Enters shadow 19:17:34 17° 152° (SSE) 881 ? -11.3°
